Regional Weather Roundup
Issued by NWS

Home | Current Version | Previous Version | Text Only | Print | Product List | Glossary Off
Versions: 1 2 3 4 5 6 7 8 9 10 11 12 13 14 15 16 17 18 19 20 21 22 23 24 25 26 27 28 29 30 31 32 33 34 35 36 37 38 39 40 41 42 43 44 45 46 47 48 49 50

000
ASUS43 KLMK 200910
RWRKY
KENTUCKY REGIONAL WEATHER ROUNDUP
NATIONAL WEATHER SERVICE LOUISVILLE KY
400 AM EST SAT DEC 20 2014

NOTE "FAIR" INDICATES FEW OR NO CLOUDS BELOW 12,000 FEET
WITH NO SIGNIFICANT WEATHER AND/OR OBSTRUCTIONS TO VISIBILITY.

KYZ001>023-026-027-061>063-070>075-201000-
WESTERN AND SOUTH CENTRAL KENTUCKY

CITY           SKY/WX    TMP DP  RH WIND       PRES   REMARKS
PADUCAH        CLOUDY    35  27  72 NE5       30.26R WCI  31
HENDERSON      CLOUDY    30  25  80 NE7       30.28S WCI  23
OWENSBORO      CLOUDY    32  25  76 NE5       30.28R WCI  27
HOPKINSVILLE   CLOUDY    31  28  86 NE6       30.24S WCI  26
BOWLING GREEN  CLOUDY    32  24  72 CALM      30.25S
GLASGOW        CLOUDY    31  25  79 N5        30.23S WCI  26
$$

KYZ024-025-028>034-038-045-046-053-201000-
NORTH CENTRAL KENTUCKY

CITY           SKY/WX    TMP DP  RH WIND       PRES   REMARKS
LOUISVILLE/SDF CLOUDY    30  23  75 NE5       30.27S WCI  25
LOUISVILLE/LOU CLOUDY    29  24  82 N3        30.27S
FORT KNOX      CLOUDY    29  22  77 N3        30.24S
$$

KYZ035>037-039>044-047>052-055>060-089>105-201000-
NORTHEAST KENTUCKY

CITY           SKY/WX    TMP DP  RH WIND       PRES   REMARKS
LEXINGTON      LGT SNOW  27  22  81 NE5       30.22F WCI  22
COVINGTON      CLOUDY    30  21  69 CALM      30.26S
FRANKFORT      CLOUDY    28  22  78 N3        30.24S
$$

KYZ054-064>069-076>088-106>120-201000-
SOUTHEAST KENTUCKY

CITY           SKY/WX    TMP DP  RH WIND       PRES   REMARKS
JACKSON        CLOUDY    27  22  81 NE6       30.19S WCI  20
LONDON         CLOUDY    30  23  75 NE5       30.18F WCI  25
SOMERSET       CLOUDY    30  25  80 NE3       30.22R
MIDDLESBORO    CLOUDY    33  30  87 CALM      30.19R
MONTICELLO     CLOUDY    31  27  85 CALM      30.24R
$$




USA.gov is the U.S. government's official web portal to all federal, state and local government web resources and services.